[[{"header":{"parameterUnit":"m.s-1","parameterCategory":1,"la1":30.2991,"la2":30.254,"lo1":-89.0895,"lo2":-89.0444,"dy":0.0017,"dx":0.0017,"nx":28,"ny":28,"refTime":"2023-06-19T21:00:00:Z","depth":0,"parameterNumber":2,"parameterNumberName":"U-component_of_WINDS"},"data":[0,0,0,0,0,0,0,0,0,0,0,0,0,0,0,0,0,0,0,0,0,0,0,0,0,0,0,0,0,0,0,0,0,0,0,0,0,0,0,0,0,0,0,0,0,0,0,0,0,0,0,0,0,0,0,0,0,0,2.9981,2.9985,0,3.0362,3.0366,3.0371,3.0475,3.0473,3.0471,3.0468,3.0863,3.0875,3.0888,0,0,0,0,0,0,0,0,0,0,0,0,0,2.9347,2.9358,2.998,2.9985,2.999,3.0361,3.0366,3.0372,3.0475,3.0473,3.047,3.0467,3.0859,3.0874,3.0889,0,0,0,0,0,0,0,0,0,0,0,0,0,2.9664,2.9362,2.9979,3.0086,3.0099,3.036,3.0367,3.0373,3.0476,3.0473,3.0469,3.0466,3.0854,3.0873,3.0891,3.1074,0,0,3.0949,3.0957,0,0,0,0,0,0,0,0,2.9646,2.9688,3.0066,3.0079,3.0095,3.0367,3.0288,3.0608,3.0477,3.0333,3.0468,3.0465,3.0701,3.0732,3.0811,3.1093,3.111,3.095,3.0962,3.097,3.0975,0,0,0,0,0,0,0,2.9624,2.9672,3.0131,3.0071,3.0089,3.0117,3.0158,3.0349,3.0531,3.0345,3.0354,3.0397,3.0709,3.0793,3.0821,3.1115,3.095,3.0967,3.0978,3.0986,3.1568,3.1572,0,0,0,0,0,0,2.9583,2.9653,3.0119,3.0143,2.9858,3.0131,3.0177,3.0283,3.0529,3.0564,3.04,3.0401,3.0762,3.0799,3.0836,3.1068,3.097,3.0988,3.0998,3.1564,3.1569,3.1573,0,0,0,0,0,0,2.9569,2.9624,3.0104,2.99,2.9964,3.0145,3.0264,3.0293,3.0377,3.0571,3.0604,3.0452,3.0761,3.0809,3.1014,3.1083,3.0996,3.1013,3.1559,3.1565,3.1571,3.1531,0,0,0,0,0,0,2.9551,2.9618,2.9688,2.9901,2.9974,3.0274,3.0268,3.0302,3.0409,3.0414,3.0629,3.0661,3.0762,3.0986,3.1033,3.1107,3.1028,3.1554,3.1562,3.1569,3.1527,3.1535,3.1542,0,0,0,0,0,2.9528,2.9662,2.9691,2.9747,3.0065,3.0278,3.032,3.0432,3.0414,3.0487,3.0611,3.0654,3.1067,3.1006,3.106,3.1141,3.155,3.156,3.1569,3.1524,3.1533,3.1542,0,0,0,0,0,0,2.9454,2.9692,2.9727,2.9934,3.0085,3.0295,3.039,3.0439,3.0599,3.0597,3.0731,3.0779,3.0975,3.1079,3.1006,3.1332,3.131,3.133,3.1257,3.1268,3.1275,3.1246,3.1044,0,0,0,0,0,2.9461,2.9612,2.9813,2.9977,3.005,3.0207,3.0304,3.0378,3.054,3.0605,3.0744,3.0901,3.1067,3.1173,3.1336,3.1542,3.1592,3.1625,3.1632,3.1637,3.1654,3.1772,3.179,3.1604,3.1604,3.1604,0,0,2.9479,2.9628,2.9715,2.9966,3.0091,3.0247,3.026,3.0424,3.0541,3.063,3.0832,3.094,3.1124,3.1331,3.1429,3.1423,3.1716,3.1649,3.1652,3.1666,3.1784,3.1801,3.1817,3.161,3.1609,3.1608,0,0,2.959,2.9717,2.9868,2.9994,3.0183,3.0287,3.0323,3.0527,3.0601,3.0806,3.0876,3.1019,3.13,3.1429,3.1532,3.1693,3.1739,3.1743,3.1782,3.1896,3.191,3.1924,3.1983,3.2002,3.1758,3.1758,3.1758,0,2.9589,2.9824,2.994,3.0101,3.0209,3.0296,3.0451,3.0568,3.0801,3.0875,3.0865,3.1221,3.1351,3.159,3.1629,3.1709,3.1756,3.1719,3.1898,3.1914,3.1928,3.1986,3.2007,3.1757,3.1758,3.1758,3.1758,0,2.9813,2.9975,3.0075,3.0297,3.0417,3.0573,3.0715,3.0823,3.0887,3.0991,3.12,3.1359,3.1556,3.1619,3.1683,3.1868,3.1858,3.1872,3.1852,3.1943,3.1999,3.2022,3.1756,3.1757,3.1757,3.1757,0,0,2.9888,3.0173,3.0207,3.031,3.0526,3.0654,3.0816,3.1008,3.1098,3.1257,3.1397,3.1634,3.1648,3.1764,3.1844,3.1944,3.2063,3.1946,3.1952,3.1963,3.2279,3.2267,3.2291,3.2095,3.21,3.2103,3.2263,0,3.0027,3.0317,3.0427,3.0665,3.0817,3.0903,3.1044,3.1193,3.1295,3.1441,3.1556,3.1722,3.1727,3.1798,3.1901,3.2026,3.2128,3.2017,3.2228,3.2234,3.2179,3.232,3.2309,3.2452,3.2286,3.229,3.2293,0,3.0228,3.0387,3.064,3.0838,3.0907,3.1031,3.1216,3.1354,3.1526,3.1594,3.1723,3.1797,3.1972,3.1941,3.2184,3.2106,3.2199,3.2274,3.2283,3.2307,3.2269,3.2349,3.25,3.2522,3.2328,3.2326,3.2323,0,3.0258,3.0536,3.0724,3.0809,3.1045,3.113,3.1233,3.1401,3.151,3.1673,3.1745,3.1926,3.2025,3.2165,3.2286,3.2252,3.2519,3.2498,3.2582,3.2579,3.2635,3.2629,3.2803,3.2693,3.2693,3.2692,3.2692,0,3.0402,3.0553,3.074,3.0855,3.1029,3.1154,3.1323,3.1431,3.158,3.172,3.1805,3.1935,3.2087,3.2236,3.2333,3.252,3.2565,3.2626,3.265,3.2619,3.2611,3.2682,3.2675,3.2698,3.2697,3.2696,3.2695,0,3.0464,3.0596,3.0806,3.1012,3.1068,3.1186,3.1364,3.148,3.1587,3.1762,3.1811,3.1979,3.216,3.2295,3.2529,3.2594,3.2795,3.2819,3.2736,3.2748,3.2825,3.2816,3.3051,3.3089,3.2952,3.2953,3.2954,0,3.0548,3.0666,3.0885,3.0983,3.1085,3.1243,3.1355,3.1484,3.1597,3.1802,3.1894,3.208,3.2236,3.2521,3.2666,3.2846,3.2876,3.2946,3.2904,3.2869,3.2879,3.287,3.2883,3.2952,3.2953,3.2953,3.2954,0,3.0682,3.0741,3.0897,3.1077,3.1207,3.1355,3.1504,3.1581,3.1737,3.186,3.2045,3.2166,3.2406,3.259,3.2785,3.2893,3.2951,3.2966,3.2995,3.2965,3.2912,3.2943,3.2753,3.296,3.2959,3.2959,3.2959,3.2958,3.0758,3.0868,3.1039,3.1211,3.1337,3.1475,3.1594,3.1716,3.1872,3.2076,3.2144,3.2335,3.2507,3.2774,3.2884,3.3038,3.3037,3.3079,3.309,3.3098,3.3097,3.2887,3.3074,3.3074,3.3074,3.3074,3.3074,0,3.0897,3.1012,3.1168,3.1374,3.151,3.1551,3.1719,3.183,3.1997,3.2151,3.2303,3.2517,3.2697,3.2856,3.3043,3.3136,3.3167,3.3181,3.3175,3.32,3.3086,3.3042,3.3152,3.3152,3.3152,3.3152,3.3152,3.3152,3.0985,3.1173,3.1253,3.1505,3.162,3.1807,3.19,3.2029,3.2152,3.2386,3.2536,3.2638,3.2795,3.2995,3.3163,3.3205,3.3271,3.3278,3.3327,3.3217,3.3208,3.3198,3.3158,3.3291,3.3291,3.3429,3.343,3.3431]},{"header":{"parameterUnit":"m.s-1","parameterCategory":1,"la1":30.2991,"la2":30.254,"lo1":-89.0895,"lo2":-89.0444,"dy":0.0017,"dx":0.0017,"nx":28,"ny":28,"refTime":"2023-06-19T21:00:00:Z","depth":0,"parameterNumber":3,"parameterNumberName":"V-component_of_WINDS"},"data":[0,0,0,0,0,0,0,0,0,0,0,0,0,0,0,0,0,0,0,0,0,0,0,0,0,0,0,0,0,0,0,0,0,0,0,0,0,0,0,0,0,0,0,0,0,0,0,0,0,0,0,0,0,0,0,0,0,0,3.1223,3.1224,0,3.139,3.1391,3.1393,3.1357,3.1354,3.1351,3.1348,3.1517,3.1524,3.1531,0,0,0,0,0,0,0,0,0,0,0,0,0,3.0872,3.0878,3.1222,3.1225,3.1227,3.1389,3.1392,3.1394,3.1357,3.1354,3.135,3.1346,3.1514,3.1523,3.1532,0,0,0,0,0,0,0,0,0,0,0,0,0,3.103,3.088,3.1222,3.1228,3.123,3.1389,3.1392,3.1394,3.1358,3.1354,3.1349,3.1344,3.1511,3.1522,3.1533,3.1695,0,0,3.1567,3.1572,0,0,0,0,0,0,0,0,3.1021,3.1043,3.1225,3.1228,3.1231,3.1348,3.133,3.1495,3.1359,3.131,3.1348,3.1342,3.1464,3.1479,3.152,3.1703,3.171,3.1568,3.1575,3.1579,3.1583,0,0,0,0,0,0,0,3.101,3.1035,3.1288,3.1228,3.1231,3.1222,3.124,3.1361,3.1411,3.1314,3.1311,3.1332,3.1465,3.151,3.1524,3.1713,3.1568,3.1577,3.1584,3.1589,3.204,3.2045,0,0,0,0,0,0,3.0997,3.1026,3.1283,3.1293,3.1112,3.1232,3.1252,3.1315,3.141,3.142,3.1336,3.1329,3.1493,3.1511,3.153,3.1728,3.1579,3.159,3.1596,3.2034,3.2041,3.2047,0,0,0,0,0,0,3.0989,3.102,3.1276,3.116,3.1191,3.1244,3.1315,3.1321,3.1366,3.1426,3.1435,3.1373,3.149,3.1514,3.1655,3.1734,3.1595,3.1605,3.2028,3.2036,3.2044,3.2125,0,0,0,0,0,0,3.0979,3.1018,3.108,3.1161,3.1198,3.14,3.1319,3.1327,3.1385,3.1379,3.1463,3.1473,3.1488,3.1639,3.1666,3.1746,3.1614,3.2021,3.2032,3.2041,3.2116,3.2135,3.2152,0,0,0,0,0,3.0967,3.1095,3.1083,3.1114,3.1277,3.1404,3.1425,3.1441,3.1391,3.1455,3.1494,3.147,3.172,3.1653,3.1684,3.1769,3.2017,3.2029,3.204,3.2108,3.2131,3.2151,0,0,0,0,0,0,3.102,3.1106,3.1093,3.1252,3.1321,3.1398,3.1478,3.1465,3.1549,3.154,3.1555,3.1574,3.1719,3.1757,3.1682,3.1932,3.1861,3.188,3.1902,3.1925,3.1942,3.1931,3.1623,0,0,0,0,0,3.1051,3.1147,3.1216,3.1349,3.1385,3.1426,3.1481,3.1488,3.156,3.1589,3.1638,3.1709,3.1804,3.1866,3.1956,3.212,3.2139,3.2194,3.2212,3.2226,3.2243,3.2335,3.2361,3.2086,3.2086,3.2086,0,0,3.1114,3.1172,3.1232,3.1361,3.1416,3.1516,3.145,3.1558,3.1633,3.1605,3.1743,3.1781,3.1861,3.2015,3.2086,3.2052,3.2323,3.2241,3.2252,3.2261,3.235,3.2376,3.2399,3.2094,3.2093,3.2091,0,0,3.1281,3.1334,3.1453,3.1509,3.1593,3.162,3.1648,3.1727,3.1753,3.1891,3.1873,3.1961,3.2123,3.2182,3.2233,3.2424,3.2406,3.2453,3.2547,3.2637,3.2658,3.2678,3.2748,3.2773,3.2468,3.2469,3.2469,0,3.1349,3.15,3.1514,3.1626,3.1684,3.1664,3.1785,3.1838,3.1947,3.1988,3.1948,3.2153,3.2205,3.2374,3.2421,3.2462,3.2496,3.2444,3.2654,3.2674,3.2692,3.276,3.2786,3.2474,3.2473,3.2473,3.2472,0,3.1581,3.1686,3.1771,3.1879,3.1946,3.2061,3.2093,3.216,3.216,3.2191,3.2333,3.2395,3.2499,3.2539,3.2539,3.2709,3.2686,3.265,3.258,3.2723,3.2787,3.2813,3.2482,3.248,3.2478,3.2477,0,0,3.1787,3.1903,3.1934,3.1984,3.2076,3.2157,3.2271,3.2374,3.2432,3.2507,3.2605,3.2743,3.2712,3.277,3.2777,3.2855,3.3007,3.2811,3.2813,3.2847,3.32,3.3228,3.3258,3.2994,3.2999,3.3003,3.3194,0,3.1965,3.2168,3.2186,3.2368,3.2467,3.245,3.255,3.2617,3.2649,3.2737,3.2771,3.2871,3.282,3.2855,3.2932,3.2972,3.3078,3.2958,3.3086,3.3091,3.307,3.3291,3.3321,3.3498,3.3219,3.3223,3.3226,0,3.22,3.2285,3.2478,3.2559,3.2601,3.269,3.2787,3.2871,3.2947,3.2965,3.3031,3.3028,3.3146,3.307,3.3234,3.3152,3.3205,3.3232,3.324,3.3254,3.3169,3.3314,3.3554,3.3582,3.3265,3.3262,3.3259,0,3.2335,3.2497,3.2635,3.2677,3.2774,3.2838,3.2881,3.2952,3.3014,3.3098,3.3138,3.3234,3.3287,3.3362,3.3385,3.3327,3.3549,3.3474,3.3568,3.3568,3.3618,3.3615,3.3873,3.3647,3.3647,3.3647,3.3646,0,3.2533,3.2653,3.2697,3.2782,3.2916,3.2934,3.3066,3.3105,3.3169,3.3262,3.3251,3.3338,3.3362,3.3454,3.3472,3.3607,3.363,3.3648,3.3652,3.3651,3.3649,3.3687,3.3677,3.3654,3.3652,3.3651,3.3649,0,3.2707,3.2741,3.289,3.297,3.2993,3.3088,3.3157,3.3239,3.3269,3.3386,3.3415,3.3462,3.357,3.36,3.3727,3.374,3.3899,3.389,3.3874,3.3875,3.3968,3.396,3.4263,3.4304,3.4049,3.4051,3.4053,0,3.2833,3.2925,3.3015,3.3077,3.3124,3.3223,3.3286,3.3307,3.3374,3.3469,3.354,3.3645,3.3732,3.3904,3.395,3.4048,3.4043,3.4142,3.4057,3.4054,3.4048,3.4043,3.4053,3.4159,3.4161,3.4163,3.4165,0,3.3053,3.3066,3.3158,3.3257,3.3334,3.3412,3.3487,3.3538,3.3571,3.3646,3.3756,3.3823,3.3955,3.4061,3.4161,3.4204,3.4192,3.4191,3.4219,3.422,3.4208,3.4218,3.392,3.4185,3.4183,3.4181,3.418,3.418,3.3209,3.3291,3.3368,3.3472,3.3531,3.3602,3.3684,3.3726,3.3819,3.3929,3.3935,3.4056,3.4131,3.4264,3.4313,3.4407,3.4378,3.4417,3.4427,3.4437,3.4447,3.4191,3.4425,3.4424,3.4424,3.4423,3.4423,0,3.3431,3.348,3.3575,3.3683,3.3765,3.3745,3.3828,3.3898,3.4005,3.4076,3.4162,3.429,3.4393,3.4447,3.455,3.4615,3.4612,3.4642,3.4638,3.4649,3.4466,3.4433,3.4643,3.4643,3.4643,3.4643,3.4643,3.4643,3.3557,3.3696,3.3718,3.3887,3.3935,3.4054,3.4103,3.4169,3.4227,3.4371,3.4457,3.4492,3.4558,3.4665,3.4759,3.4772,3.4812,3.4846,3.4856,3.4684,3.4662,3.464,3.461,3.4854,3.4854,3.5032,3.5034,3.5035]}]]